Terminal Aerodrome Forecast
Issued by NWS Wilmington, OH

Current Version | Previous Version | Graphics & Text | Print | Product List | Glossary On
Versions: 1 2 3 4 5 6 7 8 9 10 11 12 13 14 15 16 17 18 19 20 21 22 23 24 25 26 27 28 29 30 31 32
000
FTUS41 KILN 150700 AAB
TAFILN
TAF AMD
KILN 150743Z 1508/1606 21005KT 6SM BR OVC028
     FM150830 20003KT P6SM BKN050
     FM151100 19003KT 4SM BR OVC015
     FM151900 14009KT P6SM BKN025
     FM152100 14009KT P6SM SCT030 OVC250
     FM160100 14006KT P6SM -RA OVC025
     FM160500 15006KT P6SM VCSH OVC015=

USA.gov is the U.S. government's official web portal to all federal, state and local government web resources and services.